TimeCST,TemperatureF,Dew PointF,Humidity,Sea Level PressureIn,VisibilityMPH,Wind Direction,Wind SpeedMPH,Gust SpeedMPH,PrecipitationIn,Events,Conditions,WindDirDegrees,DateUTC
12:13 AM,26.6,24.8,93,30.04,7.0,North,4.6,-,N/A,,Clear,350,2012-11-18 06:13:00
12:34 AM,24.8,24.8,100,30.03,7.0,North,4.6,-,N/A,,Clear,10,2012-11-18 06:34:00
12:54 AM,24.8,24.8,100,30.03,7.0,NNE,4.6,-,N/A,,Clear,20,2012-11-18 06:54:00
1:14 AM,24.8,24.8,100,30.03,7.0,North,4.6,-,N/A,,Clear,360,2012-11-18 07:14:00
1:34 AM,26.6,24.8,93,30.02,7.0,NE,4.6,-,N/A,,Clear,40,2012-11-18 07:34:00
1:54 AM,24.8,24.8,100,30.01,7.0,NE,3.5,-,N/A,,Clear,50,2012-11-18 07:54:00
2:14 AM,24.8,24.8,100,30.01,4.0,East,4.6,-,N/A,,Clear,80,2012-11-18 08:14:00
2:34 AM,26.6,26.6,100,30.01,4.0,ENE,4.6,-,N/A,,Clear,70,2012-11-18 08:34:00
2:54 AM,28.4,26.6,93,30.01,4.0,ENE,3.5,-,N/A,,Clear,70,2012-11-18 08:54:00
3:14 AM,26.6,26.6,100,30.01,3.0,Calm,Calm,-,N/A,,Clear,0,2012-11-18 09:14:00
3:34 AM,24.8,24.8,100,30.00,3.0,NE,3.5,-,N/A,,Clear,50,2012-11-18 09:34:00
3:53 AM,24.8,24.8,100,30.00,4.0,Calm,Calm,-,N/A,,Clear,0,2012-11-18 09:53:00
4:14 AM,26.6,26.6,100,30.00,3.0,Calm,Calm,-,N/A,,Clear,0,2012-11-18 10:14:00
4:34 AM,24.8,24.8,100,30.00,2.5,Calm,Calm,-,N/A,,Clear,0,2012-11-18 10:34:00
4:53 AM,23.0,21.2,93,29.99,5.0,Calm,Calm,-,N/A,,Clear,0,2012-11-18 10:53:00
5:14 AM,24.8,23.0,93,29.99,4.0,Calm,Calm,-,N/A,,Clear,0,2012-11-18 11:14:00
5:34 AM,21.2,21.2,100,29.99,5.0,Calm,Calm,-,N/A,,Clear,0,2012-11-18 11:34:00
5:54 AM,21.2,21.2,100,29.99,5.0,East,3.5,-,N/A,,Clear,90,2012-11-18 11:54:00
6:14 AM,21.2,21.2,100,29.98,5.0,East,4.6,-,N/A,,Clear,80,2012-11-18 12:14:00
6:34 AM,23.0,21.2,93,29.97,5.0,ESE,6.9,-,N/A,,Clear,110,2012-11-18 12:34:00
6:54 AM,24.8,23.0,93,29.98,5.0,Calm,Calm,-,N/A,,Clear,0,2012-11-18 12:54:00
7:14 AM,21.2,19.4,93,29.98,7.0,Calm,Calm,-,N/A,,Clear,0,2012-11-18 13:14:00
7:34 AM,19.4,17.6,93,29.98,7.0,WNW,3.5,-,N/A,,Clear,290,2012-11-18 13:34:00
7:54 AM,19.4,17.6,93,29.98,5.0,Calm,Calm,-,N/A,,Clear,0,2012-11-18 13:54:00
8:14 AM,19.4,17.6,93,29.98,5.0,Calm,Calm,-,N/A,,Clear,0,2012-11-18 14:14:00
8:34 AM,21.2,19.4,93,29.98,5.0,Calm,Calm,-,N/A,,Clear,0,2012-11-18 14:34:00
8:54 AM,23.0,21.2,93,29.98,5.0,Calm,Calm,-,N/A,,Clear,0,2012-11-18 14:54:00
9:14 AM,24.8,23.0,93,29.98,5.0,Calm,Calm,-,N/A,,Clear,0,2012-11-18 15:14:00
9:34 AM,28.4,26.6,93,29.97,5.0,SE,3.5,-,N/A,,Clear,140,2012-11-18 15:34:00
9:54 AM,30.2,30.2,100,29.97,5.0,Calm,Calm,-,N/A,,Clear,0,2012-11-18 15:54:00
10:14 AM,35.6,33.8,93,29.97,7.0,SE,3.5,-,N/A,,Clear,140,2012-11-18 16:14:00
10:34 AM,37.4,35.6,93,29.97,7.0,South,3.5,-,N/A,,Clear,180,2012-11-18 16:34:00
10:54 AM,35.6,33.8,93,29.97,7.0,Calm,Calm,-,N/A,,Clear,0,2012-11-18 16:54:00
11:14 AM,37.4,33.8,87,29.96,7.0,Calm,Calm,-,N/A,,Clear,0,2012-11-18 17:14:00
11:34 AM,39.2,35.6,87,29.96,7.0,SSE,3.5,-,N/A,,Clear,160,2012-11-18 17:34:00
11:54 AM,39.2,35.6,87,29.97,10.0,SSE,5.8,-,N/A,,Clear,160,2012-11-18 17:54:00
12:14 PM,39.2,37.4,93,29.96,10.0,SSE,6.9,-,N/A,,Clear,160,2012-11-18 18:14:00
12:34 PM,39.2,37.4,93,29.96,10.0,SSE,8.1,-,N/A,,Clear,160,2012-11-18 18:34:00
12:54 PM,41.0,37.4,87,29.95,10.0,SSE,8.1,-,N/A,,Clear,150,2012-11-18 18:54:00
1:14 PM,42.8,37.4,81,29.95,10.0,SSE,8.1,-,N/A,,Clear,150,2012-11-18 19:14:00
1:33 PM,42.8,37.4,81,29.94,10.0,SSE,8.1,-,N/A,,Clear,150,2012-11-18 19:33:00
1:54 PM,41.0,37.4,87,29.93,10.0,SSE,6.9,-,N/A,,Clear,160,2012-11-18 19:54:00
2:14 PM,42.8,37.4,81,29.93,10.0,SSE,6.9,-,N/A,,Clear,150,2012-11-18 20:14:00
2:34 PM,42.8,39.2,87,29.93,10.0,SSE,5.8,-,N/A,,Clear,150,2012-11-18 20:34:00
2:54 PM,42.8,39.2,87,29.93,10.0,SSE,5.8,-,N/A,,Clear,150,2012-11-18 20:54:00
3:13 PM,42.8,39.2,87,29.93,10.0,South,3.5,-,N/A,,Clear,180,2012-11-18 21:13:00
3:34 PM,41.0,37.4,87,29.93,10.0,Calm,Calm,-,N/A,,Clear,0,2012-11-18 21:34:00
3:54 PM,41.0,37.4,87,29.93,7.0,Calm,Calm,-,N/A,,Clear,0,2012-11-18 21:54:00
4:13 PM,39.2,37.4,93,29.94,7.0,Calm,Calm,-,N/A,,Clear,0,2012-11-18 22:13:00
4:34 PM,39.2,37.4,93,29.94,7.0,SSE,4.6,-,N/A,,Clear,150,2012-11-18 22:34:00
4:54 PM,39.2,37.4,93,29.94,10.0,SE,4.6,-,N/A,,Clear,140,2012-11-18 22:54:00
5:13 PM,37.4,37.4,100,29.94,10.0,SE,5.8,-,N/A,,Clear,140,2012-11-18 23:13:00
5:34 PM,37.4,37.4,100,29.93,7.0,ESE,5.8,-,N/A,,Clear,120,2012-11-18 23:34:00
5:54 PM,39.2,37.4,93,29.93,7.0,SE,6.9,-,N/A,,Clear,130,2012-11-18 23:54:00
6:13 PM,39.2,37.4,93,29.93,10.0,SE,5.8,-,N/A,,Clear,140,2012-11-19 00:13:00
6:34 PM,37.4,35.6,93,29.93,10.0,SE,6.9,-,N/A,,Clear,130,2012-11-19 00:34:00
6:54 PM,37.4,35.6,93,29.93,10.0,SE,6.9,-,N/A,,Clear,130,2012-11-19 00:54:00
7:13 PM,37.4,37.4,100,29.92,10.0,SE,6.9,-,N/A,,Clear,130,2012-11-19 01:13:00
7:34 PM,37.4,37.4,100,29.91,10.0,SE,8.1,-,N/A,,Clear,130,2012-11-19 01:34:00
7:54 PM,37.4,35.6,93,29.90,10.0,SE,8.1,-,N/A,,Clear,130,2012-11-19 01:54:00
8:13 PM,37.4,35.6,93,29.90,10.0,SE,8.1,-,N/A,,Clear,140,2012-11-19 02:13:00
8:34 PM,37.4,35.6,93,29.90,10.0,SE,9.2,-,N/A,,Clear,140,2012-11-19 02:34:00
8:54 PM,39.2,35.6,87,29.89,10.0,SE,9.2,-,N/A,,Clear,140,2012-11-19 02:54:00
9:14 PM,39.2,35.6,87,29.88,10.0,SE,10.4,-,N/A,,Clear,130,2012-11-19 03:14:00
9:34 PM,41.0,37.4,87,29.89,10.0,SE,10.4,-,N/A,,Clear,130,2012-11-19 03:34:00
9:54 PM,39.2,35.6,87,29.88,10.0,SE,10.4,-,N/A,,Clear,140,2012-11-19 03:54:00
10:14 PM,39.2,35.6,87,29.88,10.0,SE,10.4,-,N/A,,Clear,130,2012-11-19 04:14:00
10:34 PM,39.2,35.6,87,29.88,10.0,SE,10.4,-,N/A,,Clear,140,2012-11-19 04:34:00
11:14 PM,39.2,35.6,87,29.87,10.0,SE,10.4,-,N/A,,Scattered Clouds,140,2012-11-19 05:14:00
11:34 PM,39.2,35.6,87,29.86,10.0,SE,12.7,-,N/A,,Clear,140,2012-11-19 05:34:00
11:53 PM,37.4,35.6,93,29.86,10.0,SSE,11.5,-,N/A,,Clear,150,2012-11-19 05:53:00